map of ITB home
ITB - Airport
Location
City:  Itaituba, Pará, Brazil
ICAO:SBIH
IATA:ITB

Details
Type:Airport (Aerodrome, Airfield)
Use:Public/Civil
Latitude:4°14'32"S (-4.242341)
Longitude:56°00'02"W (-56.000668)
Datum:WGS 1984
Elevation:110 ft (34 m)
Variation:17.94°W (WMM2015 magnetic declination)
-0.10° annual change
Runways:1
Longest:5266 × 98 ft (1605 × 30 m), paved

Time
Time Zone:UTC-3
Local Time:

Weather
METAR:SBIH 252100Z /////KT 9999 FEW022 FEW025TCU 29/24 Q1009
TAF:SBIH 251600Z 2518/2606 08005KT 9999 SCT020 FEW025TCU TX33/2518Z TN20/2606Z PROB30
TEMPO 2518/2521 TS FEW020 FEW025CB
BECMG 2523/2601 00000KT FEW015
RMK PCQ

Related Locations
Nearby:
Farthest:NAH: 12335 mi / 19851 km
Tahuna [Naha Airport], SA, ID

Find:

   beyond  
but within

Other Information
Maps:
NOTAMs:
Links:
Sources:

  
flag of Brazil
flag of Pará
  

Sectional Chart

Flight Planning
at skyvector.com

Satellite Image

Google Maps Satellite view

 

Copyright © 2004-2018 Karl L. Swartz. All rights reserved.
The Great Circle Mapper name and logo are trademarks of the Great Circle Mapper.
All other trademarks mentioned herein belong to their respective owners.
Please see credits for attibutions and further copyright information.

  Follow gcmap on Facebook Follow gcmap on Twitter Follow gcmap on Google+ GCmap on LinkedIn

hCard Microformat

Geo Microformat